Regional Weather Roundup
Issued by NWS Mobile, AL

Home | Current Version | Previous Version | Text Only | Print | Product List | Glossary On
Versions: 1 2 3 4 5 6 7 8 9 10 11 12 13 14 15 16 17 18 19 20 21 22 23 24 25 26 27
000
ASUS44 KMOB 301712
RWRMOB
REGIONAL WEATHER ROUNDUP
NATIONAL WEATHER SERVICE MOBILE AL
1200 PM CDT SAT APR 30 2016

NOTE: "FAIR" INDICATES FEW OR NO CLOUDS BELOW 12,000 FEET WITH NO
      SIGNIFICANT WEATHER AND/OR OBSTRUCTIONS TO VISIBILITY.

  * THESE STATIONS ARE PART OF THE UNIVERSITY OF SOUTH ALABAMA
    MESONET AND ARE NOT UNDER NWS OR FAA QUALITY CONTROL.

ALZ061>064-301800-
COASTAL ALABAMA

CITY           SKY/WX    TMP DP  RH WIND       PRES   REMARKS
MOBILE REG APT CLOUDY    80  73  79 SE14      29.92S
BROOKLEY FIELD PTSUNNY   80  73  79 SE17      29.92S
USA CAMPUS*    NOT AVBL
DOG RIVER*     NOT AVBL


CITY           SKY/WX    TMP DP  RH WIND       PRES   REMARKS
MOUNT VERNON*  NOT AVBL
SARALAND*      NOT AVBL
BAY MINETTE*   NOT AVBL
LOXLEY*        NOT AVBL
ROBERTSDALE*   NOT AVBL
FAIRHOPE*      NOT AVBL
ELBERTA*       NOT AVBL
FOLEY*         NOT AVBL
GRAND BAY*     NOT AVBL
DAUPHIN ISLND* NOT AVBL
BON SCOUR NWR* NOT AVBL
GULF SHORES    CLOUDY    78  76  91 SE13G23   29.92F

$$

ALZ051>060-301800-
INTERIOR SOUTHWEST AND SOUTH CENTRAL ALABAMA

CITY           SKY/WX    TMP DP  RH WIND       PRES   REMARKS
GREENVILLE     MOSUNNY   84  65  52 SE9       29.93F
EVERGREEN      MOSUNNY   81  67  62 S14       29.94F
CASTLEBERRY*   NOT AVBL
ATMORE*        NOT AVBL
DIXIE*         NOT AVBL
ANDALUSIA/OPP  CLOUDY    87  66  49 S8G17     29.94F
ANDALUSIA*     NOT AVBL
FLORALA APT    MOSUNNY   81  66  60 S9        29.96F
FLORALA*       NOT AVBL

$$

FLZ001>006-301800-
WESTERN FLORIDA PANHANDLE

CITY           SKY/WX    TMP DP  RH WIND       PRES   REMARKS
PENSACOLA      CLOUDY    79  72  79 SE14      29.93F
NAS PENSACOLA  CLOUDY    79  73  82 SE17      29.93F
MILTON         LGT RAIN  82  71  69 SE17      29.94
WHTNG S FIELD  CLOUDY    84  72  67 S13       29.94F


CITY           SKY/WX    TMP DP  RH WIND       PRES   REMARKS
WALNUT HILL*   NOT AVBL
JAY*           NOT AVBL
DUKE FIELD     CLOUDY    82  65  56 S18G24    29.93F
CRESTVIEW      PTSUNNY   84  66  54 S10G21    29.95F
VALPARAISO     PTSUNNY   79  71  76 SE14      29.94F
DESTIN         MOSUNNY   79  75  87 SE13      29.95F

$$

MSZ076-079-301800-
INTERIOR SOUTHEAST MISSISSIPPI

CITY           SKY/WX    TMP DP  RH WIND       PRES   REMARKS
LEAKESVILLE*   NOT AVBL
AGRICOLA*      NOT AVBL

$$

MARINE OBSERVATIONS

STATION/POSITION TIME  TEMP    WIND        PRES    WAVE
                       AIR SEA DIR/SP/G            HT/PER
                 (UTC) (F)     (DEG/KT/KT) (MB)    (FT/S)
PASCAGOULA       1600   77     130/ 15/ 19 1012.0R
PETIT BOIS ISLND 1624   80     120/ 13/ 17 1012.9S
GRAND BAY        1500   77     140/ 15     1014.0S
KATRINA CUT      1600   76     130/ 18       N/A
CEDAR POINT      1600   77     140/ 15     1012.5S
E DAUPHIN ISLAND 1700   76     120/ 18/ 21 1012.3F
MIDDLE BAY LIGHT 1600   77     130/ 20     1012.9S
USCG MOBILE BAY  1600   78 76  160/  7/ 10 1013.5R
STATE DOCKS      1600   78 73              1013.0R
MEAHER PARK      1600   78     140/ 12     1011.9S
WEEKS BAY        1545   79                   N/A
FORT MORGAN      1600   77     140/ 18/ 20 1012.5R
12 S ORANGE BCH  1650   75 74  110/ 12/ 14 1012.2F   3/ 6
PENSACOLA BAY    1600   83 71  120/  3/  7 1014.2R
64 S DAUPHIN ISL 1600   76 74  140/ 14/ 16 1012.1R

$$

SELECTED LOCATIONS ACROSS THE REGION

CITY           SKY/WX    TMP DP  RH WIND       PRES   REMARKS
NEW ORLEANS    CLOUDY    81  72  74 SE16G24   29.82F
GULFPORT       CLOUDY    79  73  82 SE21      29.87F
PASCAGOULA AP  CLOUDY    80  73  79 SE20G29   29.89F
PASCAGOULA*    NOT AVBL
HATTIESBURG    CLOUDY    81  69  67 SE15      29.88F
LAUREL         CLOUDY    79  68  69 SE10      29.90S
MERIDIAN       CLOUDY    77  69  76 S8        29.91S
JACKSON        PTSUNNY   76  69  79 SE10      29.88F
MONTGOMERY     CLOUDY    84  66  54 SE10      29.93F
TROY           MOSUNNY   85  66  53 S10       29.96F
KINSTON*       NOT AVBL
GENEVA*        NOT AVBL
ASHFORD*       NOT AVBL
DOTHAN         CLOUDY    85  65  51 S13       30.00S
PANAMA CITY    MOSUNNY   83  66  56 S12       29.96R

$$





USA.gov is the U.S. government's official web portal to all federal, state and local government web resources and services.